Weather in Volotovo

Russia / Lipetsk Oblast     52°57′57″N   39°05′09″E
temp.,
°C
wind,
m/s
gust,
m/s
humid.,
%
clouds,
%
prec.,
mm/h
press.,
hPa
HPBL,
m
21 april, wed
wed2100:00+3ne51095100 2.4 1005489
03:00+4n2497100 5.2 1003246
06:00+3nw2397100 3.3 1004299
09:00+3w3598100 4.7 1007301
12:00+4w5787100 0.1 1009642
15:00+7wsw6873100 0.1 10111018
18:00+6sw2680100 0.0 1012481
21:00+6s3688100 0.0 1014208
22 april, thu
thu2200:00+6sw3793100 0.1 1015385
03:00+5wsw488986 0.4 1017635
06:00+3ssw36945 0.0 1018165
09:00+8sw57745 0.0 1019580
12:00+12sw675748 0.0 10191568
15:00+13ssw6757100 0.1 10191595
18:00+13s5863100 0.2 1019571
21:00+10s497351 0.2 1019179
23 april, fri
fri2300:00+9s487616 0.0 1019138
03:00+8s487991 0.0 1019136
06:00+9s41076100 0.0 1019213
09:00+13s596299 0.0 1019517
12:00+16s7943100 0.0 10172374
15:00+15s794853 0.0 10161776
18:00+15s610555 0.1 1015755
21:00+11sse51271100 0.1 1014276
24 april, sat
sat2400:00+11sse6137098 0.3 1012417
03:00+10s61275100 0.4 1010447
06:00+9s51182100 0.3 1008557
09:00+6w6888100 1.3 1007625
12:00+4w61196100 2.4 1010653
15:00+7wsw5768100 2.9 10101231
18:00+8wsw3663100 1.1 10101059
21:00+4wsw367361 1.3 1012101
25 april, sun
sun2500:00+3wsw34785 0.0 101262
03:00+2wsw35855 0.0 101282
06:00+2w37875 0.0 1012177
09:00+6w57615 0.0 10131130
12:00+8wsw6847100 0.1 10132130
15:00+8wsw7850100 0.8 10131802
18:00+8sw465683 0.8 10131436
21:00+4sw37749 1.3 1014174